Flag for U.S.A. Weather past 2 weeks in Binghamton, New York, U.S.A.

Now
71 °F

Clear.


Feels Like: 71 °F
Forecast: 63 / 87 °F
Wind: No wind

Location: Binghamton Regional Airport

Current Time: Sep 2, 2015 at 12:26:11 AM

Latest Report: Sep 1, 2015 at 11:53 PM


Visibility: 10 mi

Pressure: 30.08 "Hg

Humidity: 81%

Dew point: 65 °F

Location of BinghamtonLocation

Historic Weather in Binghamton — Graph

°F

Binghamton temperature yesterday

Maximum temperature yesterday: 79 °F (at 1:53 PM)
Minimum temperature yesterday: 61 °F (at 7:00 AM)
Average temperature yesterday: 71 °F

Past Weeks' High & Low Weather Summary

 TemperatureHumidityPressure
High84 °F (Aug 18, 12:53 PM)100% (Aug 20, 11:53 PM)30.24 "Hg (Aug 20, 11:53 PM)
Low51 °F (Aug 22, 5:53 AM)44% (Aug 25, 4:53 PM)29.83 "Hg (Aug 24, 4:53 PM)
Average67 °F78%30.04 "Hg
* Reported Aug 17 10:53 PM — Sep 1 10:53 PM, Binghamton, Weather by CustomWeather, © 2015

Note: Actual official high and low records may vary slightly from our data, if they occured in-between our weather recording intervals... More about our weather records

Advertising

Binghamton weather history for previous 24 hours

 ConditionsComfort  
Time TempWeatherWind HumidityBarometerVisibility
10:53 PM
Tue, Sep 1
70 °FClear.No wind84%30.07 "Hg10 mi
9:53 PM72 °FClear.No wind76%30.08 "Hg10 mi
8:53 PM74 °FPassing clouds.3 mph74%30.08 "Hg10 mi
7:53 PM75 °FScattered clouds.No wind71%30.06 "Hg10 mi
6:53 PM76 °FSunny.3 mph72%30.05 "Hg10 mi
4:53 PM78 °FScattered clouds.6 mph64%30.05 "Hg10 mi
3:53 PM79 °FPartly sunny.6 mph62%30.06 "Hg10 mi
2:53 PM79 °FSunny.3 mph62%30.08 "Hg10 mi
2:02 PM78 °FPartly sunny.7 mph64%30.11 "Hg10 mi
1:53 PM79 °FScattered clouds.5 mph65%30.08 "Hg10 mi
12:53 PM77 °FPartly sunny.5 mph69%30.09 "Hg9 mi
11:53 AM73 °FOvercast.3 mph81%30.11 "Hg8 mi
10:53 AM75 °FPartly sunny.No wind74%30.11 "Hg8 mi
9:53 AM70 °FFog.No wind87%30.11 "Hg6 mi
8:53 AM63 °FFog.5 mph100%30.11 "Hg0 mi
7:53 AM63 °FFog.No wind100%30.09 "Hg0 mi
7:00 AM61 °FFog.No wind100%30.11 "Hg0 mi
5:53 AM66 °FFog.No wind96%30.06 "Hg4 mi
4:53 AM67 °FFog.3 mph93%30.06 "Hg6 mi
3:53 AM66 °FFog.5 mph93%30.06 "Hg5 mi
2:53 AM66 °FFog.3 mph96%30.05 "Hg5 mi
2:04 AM66 °FFog.3 mph93%30.09 "Hg5 mi
1:53 AM67 °FFog.3 mph93%30.06 "Hg5 mi
12:53 AM67 °FFog.No wind93%30.06 "Hg6 mi
Weather by CustomWeather, © 2015

See weather overviewHow to use our weather pages